Location: Unspecified
(49.2170°N, 0.0000°E)
Time: 15:46:28
(UTC+00:00)

Vanguard 3 - Pass Details

Date: 28 June 2019
Orbit: 507 x 3264 km, 33.4° (Epoch: 21 July)

Event Time Altitude Azimuth Distance (km) Brightness Sun altitude
Rises 13:24:40 0° 263° (W) 6,024 11.9 59.5°
Reaches altitude 10° 13:30:08 10° 252° (WSW) 4,493 11.5 58.9°
Maximum altitude 13:38:28 24° 206° (SSW) 2,655 10.8 58.0°
Drops below altitude 10° 13:44:06 10° 156° (SSE) 2,911 10.3 57.4°
Sets 13:46:48 0° 141° (SE) 3,546 10.5 57.0°
